Location: Bettgenhausen
(50.6463°N, 7.5681°E)
Time: 04:46:51
(UTC+00:00)

Cosmos 468 Rocket - Pass Details

Date: 27 February 2020
Orbit: 744 x 780 km, 74.0° (Epoch: 02 April)

Event Time Altitude Azimuth Distance (km) Brightness Sun altitude
Rises 18:40:38 0° 199° (SSW) 3,238 7.4 -15.6°
Reaches altitude 10° 18:42:59 10° 199° (SSW) 2,319 6.6 -16.0°
Maximum altitude 18:48:16 83° 112° (ESE) 792 3.9 -16.8°
Drops below altitude 10° 18:53:37 10° 26° (NNE) 2,345 6.3 -17.7°
Sets 18:56:01 0° 25° (NNE) 3,277 7.1 -18.0°
